Location: Northcutt
(34.7304°N, 84.4305°W)
Time: 03:52:05
(UTC+00:00)

Vanguard 2 - Pass Details

Date: 10 October 2022
Orbit: 553 x 2933 km, 32.9° (Epoch: 05 December)

Event Time Altitude Azimuth Distance (km) Brightness Sun altitude
Rises 20:56:14 0° 281° (W) 5,021 12.4 25.1°
Reaches altitude 10° 20:59:07 10° 277° (W) 4,302 12.3 24.6°
Maximum altitude 21:11:33 62° 201° (SSW) 2,789 11.1 22.3°
Drops below altitude 10° 21:28:46 10° 127° (SE) 5,756 11.7 19.1°
Sets 21:33:21 0° 124° (SE) 6,754 12.0 18.2°
